This is the latest recevied weather packets stored in our database for station/object HK3BJ-10. If no packets are shown the sender has not sent any weather packets the latest 10 day(s).
| Time | Temp. | Humidity | Pressure | Rain* | Wind** | Luminosity | Snow |
|---|---|---|---|---|---|---|---|
| 1787976817 | 12.78° C | 84% | 1020 hPa | 0 mm | - | - | - |
| 1787975877 | 12.78° C | 82% | 1019 hPa | 0 mm | - | - | - |
| 1787974935 | 12.78° C | 80% | 1019 hPa | 0 mm | - | - | - |
| 1787973990 | 12.78° C | 77% | 1020 hPa | 0 mm | - | - | - |
| 1787973047 | 12.78° C | 74% | 1020 hPa | 0 mm | - | - | - |
| 1787972105 | 13.33° C | 69% | 1020 hPa | 0 mm | - | - | - |
| 1787971162 | 13.33° C | 65% | 1020 hPa | 0 mm | - | - | - |
| 1787970219 | 13.33° C | 61% | 1020 hPa | 0 mm | - | - | - |
| 1787969271 | 13.33° C | 58% | 1019 hPa | 0 mm | - | - | - |
| 1787968324 | 13.33° C | 55% | 1019 hPa | 0 mm | - | - | - |
| 1787967381 | 15° C | 55% | 1019 hPa | 0 mm | - | - | - |
| 1787966433 | 15° C | 55% | 1018 hPa | 0 mm | - | - | - |
| 1787965489 | 15° C | 55% | 1018 hPa | 0 mm | - | - | - |
| 1787964538 | 15° C | 55% | 1018 hPa | 0 mm | - | - | - |
| 1787963583 | 15.56° C | 55% | 1017 hPa | 0 mm | - | - | - |
| 1787961678 | 17.78° C | 45% | 1016 hPa | 0 mm | - | - | - |
| 1787960738 | 17.78° C | 45% | 1016 hPa | 0 mm | - | - | - |
| 1787959785 | 17.78° C | 45% | 1015 hPa | 0 mm | - | - | - |
| 1787958835 | 17.78° C | 45% | 1015 hPa | 0 mm | - | - | - |
| 1787957890 | 20° C | 45% | 1015 hPa | 0 mm | - | - | - |
| 1787956942 | 18.89° C | 42% | 1014 hPa | 0 mm | - | - | - |
| 1787955990 | 18.89° C | 42% | 1013 hPa | 0 mm | - | - | - |
| 1787954996 | 18.89° C | 42% | 1013 hPa | 0 mm | - | - | - |
| 1787954038 | 18.89° C | 42% | 1013 hPa | 0 mm | - | - | - |
| 1787953098 | 18.89° C | 42% | 1012 hPa | 0 mm | - | - | - |
* Rain latest hour (hover to see other rain measurements)
** Current wind speed in m/s (hover to see current wind gust speed)